Regional Weather Roundup
Issued by NWS

Home | Current Version | Previous Version | Graphics & Text | Print | Product List | Glossary On
Versions: 1 2 3 4 5 6 7 8 9 10 11 12 13 14 15 16 17 18 19 20 21 22 23 24 25 26 27 28 29 30 31 32 33 34 35 36 37 38 39 40 41 42 43 44 45 46 47 48 49 50
000
ASUS43 KIND 232309
RWRIN

WEATHER ROUNDUP FOR INDIANA
NATIONAL WEATHER SERVICE INDIANAPOLIS IN
700 PM EDT FRI JUN 23 2017

NOTE: "FAIR" INDICATES FEW OR NO CLOUDS BELOW 12,000 FEET WITH NO
SIGNIFICANT WEATHER AND/OR OBSTRUCTIONS TO VISIBILITY.

* - STATION DOES NOT REPORT WEATHER SUCH AS PRECIPITATION OR FOG.

+ - STATION NOT QUALITY CONTROLLED BY THE NATIONAL WEATHER SERVICE.
    USE DATA WITH CAUTION...ESPECIALLY DEWPOINT AND RELATIVE
    HUMIDITY OBSERVATIONS.

INZ001>003-010>013-019-020-240000-
NORTHWEST INDIANA

CITY           SKY/WX    TMP DP  RH WIND       PRES   REMARKS
GARY /AIRPORT/ PTSUNNY   79  45  29 CALM      29.72F
KNOX *+        MOSUNNY   73  43  33 N6        29.72S
LA PORTE +     SUNNY     75  52  43 N7        29.73S
MICHIGAN CITY+ SUNNY     75  54  46 N3        29.72F
MONTICELLO +   CLOUDY    76  53  45 N8        29.73S
RENSSELAER +   SUNNY     77  46  33 N3        29.74S
VALPARAISO     SUNNY     81  50  33 N6        29.73S

$$

LMZ046-743>745-240000-
SOUTHERN LAKE MICHIGAN

STATION/POSITION TIME  TEMP    WIND        PRES    WAVE
                       AIR SEA DIR/SP/G            HT
                 (UTC) (F)     (DEG/KT/KT) (MB)    (FT)
BURNS HARBOR     2240   75      70/  5/  5 1006.8F
MICHIGAN CITY    2240   71      50/  5/  6   N/A
5NW MICH CITY    2300   70 70  130/  2/  4   N/A     1

$$

INZ004-005-014>016-021>024-240000-
NORTH CENTRAL INDIANA

CITY           SKY/WX    TMP DP  RH WIND       PRES   REMARKS
ELKHART        CLOUDY    75  50  41 NW6       29.73R
GOSHEN         MOSUNNY   75  51  43 NW8       29.72R
LOGANSPORT +   CLOUDY    73  55  53 NW9       29.74R
PERU/GRISSOM   MOSUNNY   74  60  62 N13       29.72R
ROCHESTER +    CLOUDY    77  52  41 N9        29.73S
SOUTH BEND     CLOUDY    74  52  46 NW8       29.72F
WARSAW +       CLOUDY    73  54  49 NW10G16   29.73R

$$

INZ006>009-017-018-025>027-240000-
NORTHEAST INDIANA

CITY           SKY/WX    TMP DP  RH WIND       PRES   REMARKS
AUBURN +       PTSUNNY   72  55  56 NW12      29.70F
FORT WAYNE     CLOUDY    73  61  65 NW10      29.70F
HUNTINGTON +   CLOUDY    72  62  71 NW5       29.71S
KENDALLVILLE + CLOUDY   N/A N/A N/A NW7       29.71S

$$

INZ028-029-035-036-043>045-051>053-240000-
WEST CENTRAL INDIANA

CITY           SKY/WX    TMP DP  RH WIND       PRES   REMARKS
CRAWFORDSVL +  MOSUNNY   71  61  70 N8        29.74S
GREENCASTLE +  CLOUDY    72  61  68 N10       29.72F
LAFAYETTE      CLOUDY    75  58  55 N6        29.73S
TERRE HAUTE    MOSUNNY   75  63  66 N9G18     29.73S

$$

INZ030>032-037>040-046>048-054>057-064-065-240000-
CENTRAL INDIANA

CITY           SKY/WX    TMP DP  RH WIND       PRES   REMARKS
CP ATTERBURY + CLOUDY    70  68  94 N5        29.71S
COLUMBUS       LGT RAIN  70  66  88 N8        29.70S FOG
FRANKFORT +    PTSUNNY   76  62  61 N10G16    29.75S
GREENWOOD *+   CLOUDY    72  67  84 N10       29.72S
INDIANAPOLIS   CLOUDY    72  65  78 N13       29.71S
-EAGLE CREEK   CLOUDY    73  65  75 N7        29.71S
KOKOMO +       CLOUDY    73  59  61 NW16      29.74R
MARION +       CLOUDY    72  61  68 N10G16    29.73R
MT COMFORT *+  CLOUDY    70  66  88 N13       29.72S
SHELBYVILLE    CLOUDY    74  67  78 NW10      29.69F
ZIONSVILLE +   CLOUDY    72  63  74 N12       29.73S

$$

INZ033-034-041-042-049-050-058-059-240000-
EAST CENTRAL INDIANA

CITY           SKY/WX    TMP DP  RH WIND       PRES   REMARKS
MUNCIE         CLOUDY    73  67  81 NW12      29.71S
RICHMOND +     CLOUDY    66  66 100 W6        29.71F

$$

INZ060-061-067>069-081>083-085>088-240000-
SOUTHWEST INDIANA

CITY           SKY/WX    TMP DP  RH WIND       PRES   REMARKS
EVANSVILLE     CLOUDY    76  71  85 NW8       29.71R
HUNTINGBURG *+ CLOUDY    77  73  87 NW7       29.70R
WASHINGTON +   CLOUDY    75  72  88 N5        29.70R

$$

INZ062-063-066-070>080-084-089>092-240000-
SOUTH CENTRAL AND SOUTHEAST INDIANA

CITY           SKY/WX    TMP DP  RH WIND       PRES   REMARKS
BEDFORD +      PTSUNNY   75  70  83 W3        29.69R
BLOOMINGTON    CLOUDY    75  70  84 N9        29.71R
MADISON *+     CLOUDY    72  70  94 CALM      29.70F
NORTH VERNON + CLOUDY    72  70  94 NE3       29.70S
SEYMOUR +      CLOUDY    75  73  94 N3        29.69R

$$





USA.gov is the U.S. government's official web portal to all federal, state and local government web resources and services.